EW3591 Weather Reports


Display with metric or nautical units.
time (UTC)temp
F
wind
direction
speed
MPH
gust
MPH
rain 1hr
in
rain 24hr
in
rain mn
in
humidity
%
barometer
mb
20260510115942 43 70 2.0 12.0 0.00 0.24 0.00 73 1013.5
20260510115742 43 52 3.0 12.0 0.00 0.24 0.00 73 1013.5
20260510115541 43 84 3.0 12.0 0.00 0.24 0.00 73 1013.5
20260510115341 43 91 3.0 12.0 0.00 0.24 0.00 73 1013.4
20260510115141 43 56 3.0 12.0 0.00 0.24 0.00 73 1013.4
20260510114941 43 67 3.0 10.0 0.00 0.24 0.00 73 1013.5
20260510114740 42 55 4.0 10.0 0.00 0.24 0.00 73 1013.4
20260510114540 42 75 3.0 10.0 0.00 0.24 0.00 73 1013.5
20260510114340 42 344 3.0 10.0 0.00 0.24 0.00 73 1013.6
20260510114139 42 329 3.0 10.0 0.00 0.24 0.00 73 1013.5
20260510113939 42 32 3.0 8.0 0.00 0.24 0.00 74 1013.4
20260510113739 42 322 3.0 8.0 0.00 0.24 0.00 74 1013.4
20260510113538 42 227 2.0 8.0 0.00 0.24 0.00 74 1013.4
20260510113338 42 246 2.0 8.0 0.00 0.24 0.00 74 1013.3
20260510113138 42 264 2.0 9.0 0.00 0.24 0.00 74 1013.3
20260510112938 42 280 1.0 9.0 0.00 0.24 0.00 75 1013.3
20260510112737 42 7 1.0 9.0 0.00 0.24 0.00 75 1013.3
20260510112537 42 32 1.0 9.0 0.00 0.24 0.00 76 1013.3
20260510112337 42 43 3.0 9.0 0.00 0.24 0.00 76 1013.2
20260510112136 42 56 3.0 9.0 0.00 0.24 0.00 76 1013.2
20260510111936 42 143 1.0 9.0 0.00 0.24 0.00 76 1013.2
20260510111736 41 298 2.0 11.0 0.00 0.24 0.00 76 1013.1
20260510111535 41 45 3.0 11.0 0.00 0.24 0.00 76 1013.1
20260510111335 41 21 2.0 11.0 0.00 0.24 0.00 76 1013.1
20260510111135 41 35 2.0 11.0 0.00 0.24 0.00 77 1013.1
20260510110935 41 98 2.0 11.0 0.00 0.24 0.00 77 1013.0
20260510110734 41 345 1.0 9.0 0.00 0.24 0.00 78 1013.0
20260510110534 41 171 1.0 9.0 0.00 0.24 0.00 78 1013.0
20260510110334 41 60 2.0 9.0 0.00 0.24 0.00 78 1012.9
20260510110133 41 56 2.0 9.0 0.00 0.24 0.00 78 1012.8
20260510105933 40 68 2.0 9.0 0.00 0.24 0.00 78 1012.7
20260510105733 40 48 2.0 9.0 0.00 0.24 0.00 79 1012.7
20260510105532 40 26 1.0 9.0 0.00 0.24 0.00 79 1012.7
20260510105332 40 327 1.0 9.0 0.00 0.24 0.00 79 1012.6
20260510105132 40 271 1.0 9.0 0.00 0.24 0.00 79 1012.6
20260510104932 40 233 1.0 9.0 0.00 0.24 0.00 79 1012.6
20260510104731 40 179 1.0 7.0 0.00 0.24 0.00 80 1012.5
20260510104531 40 62 1.0 7.0 0.00 0.24 0.00 80 1012.4
20260510104331 40 20 1.0 4.0 0.00 0.24 0.00 80 1012.3
20260510104130 40 35 1.0 5.0 0.00 0.24 0.00 80 1012.3
20260510103930 39 49 1.0 5.0 0.00 0.24 0.00 80 1012.3
20260510103730 39 269 0.0 5.0 0.00 0.24 0.00 80 1012.2
20260510103529 39 109 1.0 5.0 0.00 0.24 0.00 80 1012.2
20260510103329 39 352 1.0 5.0 0.00 0.24 0.00 80 1012.2
20260510103129 39 322 0.0 4.0 0.00 0.24 0.00 80 1012.2
20260510102928 39 24 1.0 4.0 0.00 0.24 0.00 80 1012.1
20260510102728 39 82 1.0 4.0 0.00 0.24 0.00 80 1012.1
20260510102528 39 132 1.0 4.0 0.00 0.24 0.00 80 1012.0
20260510102328 39 212 1.0 4.0 0.00 0.24 0.00 80 1012.0
20260510102127 39 238 1.0 4.0 0.00 0.24 0.00 80 1011.9
20260510101927 39 231 1.0 4.0 0.00 0.24 0.00 80 1011.9
20260510101727 39 164 1.0 4.0 0.00 0.24 0.00 80 1011.8
20260510101526 39 161 0.0 4.0 0.00 0.24 0.00 80 1011.8
20260510101326 39 251 0.0 2.0 0.00 0.24 0.00 80 1011.7
20260510101126 39 251 0.0 2.0 0.00 0.24 0.00 80 1011.7
20260510100925 39 251 0.0 3.0 0.00 0.24 0.00 80 1011.6
20260510100725 39 230 0.0 3.0 0.00 0.24 0.00 80 1011.6
20260510100525 39 225 1.0 3.0 0.00 0.24 0.00 80 1011.5
20260510100325 39 225 1.0 3.0 0.00 0.24 0.00 80 1011.5
20260510100124 39 225 0.0 3.0 0.00 0.24 0.00 80 1011.4
20260510095924 39 229 0.0 2.0 0.00 0.24 0.00 80 1011.4
20260510095724 39 235 0.0 2.0 0.00 0.24 0.00 80 1011.3
20260510095523 39 238 0.0 2.0 0.00 0.24 0.00 80 1011.3
20260510095323 39 238 0.0 2.0 0.00 0.24 0.00 80 1011.3
20260510095123 39 238 0.0 2.0 0.00 0.24 0.00 80 1011.2
20260510094922 39 235 0.0 2.0 0.00 0.24 0.00 80 1011.2
20260510094722 39 174 0.0 2.0 0.00 0.24 0.00 80 1011.2
20260510094522 40 129 0.0 2.0 0.00 0.24 0.00 80 1011.1
20260510094322 40 129 0.0 3.0 0.00 0.24 0.00 79 1011.1
20260510094121 40 130 0.0 4.0 0.00 0.24 0.00 79 1011.1
20260510093921 40 131 0.0 4.0 0.00 0.24 0.00 79 1011.1
20260510093721 40 131 0.0 4.0 0.00 0.24 0.00 79 1011.1
20260510093520 40 139 0.0 4.0 0.00 0.24 0.00 79 1011.0
20260510093320 40 197 0.0 4.0 0.00 0.24 0.00 79 1010.9
20260510093120 40 216 0.0 2.0 0.00 0.24 0.00 79 1010.9
20260510092919 40 216 0.0 2.0 0.00 0.24 0.00 79 1010.9
20260510092719 40 216 0.0 2.0 0.00 0.24 0.00 79 1010.9
20260510092519 40 216 0.0 2.0 0.00 0.24 0.00 79 1010.8
20260510092319 40 216 0.0 2.0 0.00 0.24 0.00 78 1010.7
20260510092118 40 216 0.0 2.0 0.00 0.24 0.00 78 1010.8
20260510091918 40 0 0.0 2.0 0.00 0.24 0.00 78 1010.7
20260510091718 40 216 0.0 2.0 0.00 0.24 0.00 78 1010.7
20260510091517 40 216 0.0 3.0 0.00 0.24 0.00 78 1010.6
20260510091317 40 216 0.0 3.0 0.00 0.24 0.00 77 1010.6
20260510091117 40 216 0.0 3.0 0.00 0.24 0.00 77 1010.6
20260510090916 41 202 0.0 3.0 0.00 0.24 0.00 77 1010.6
20260510090716 41 258 1.0 3.0 0.00 0.24 0.00 77 1010.5
20260510090516 41 242 0.0 2.0 0.00 0.24 0.00 77 1010.4
20260510090316 41 28 0.0 2.0 0.00 0.24 0.00 76 1010.5
20260510090115 41 28 0.0 2.0 0.00 0.24 0.00 76 1010.5
20260510085915 41 28 0.0 2.0 0.00 0.24 0.00 76 1010.4
20260510085715 41 28 0.0 2.0 0.00 0.24 0.00 76 1010.4
20260510085514 41 28 0.0 2.0 0.00 0.24 0.00 76 1010.4
20260510085314 41 28 0.0 4.0 0.00 0.24 0.00 76 1010.4
20260510085114 41 28 0.0 5.0 0.00 0.24 0.00 75 1010.4
20260510084913 41 28 0.0 5.0 0.00 0.24 0.00 75 1010.4
20260510084713 41 28 0.0 5.0 0.00 0.24 0.00 75 1010.4
20260510084513 42 33 1.0 5.0 0.00 0.24 0.00 75 1010.3
20260510084312 42 59 0.0 3.0 0.00 0.24 0.00 75 1010.4
20260510084112 42 9 0.0 4.0 0.00 0.24 0.00 74 1010.3
20260510083912 42 91 1.0 4.0 0.00 0.24 0.00 74 1010.3
20260510083712 42 89 0.0 4.0 0.00 0.24 0.00 75 1010.3
20260510083511 42 71 1.0 4.0 0.00 0.24 0.00 74 1010.4
20260510083311 42 131 0.0 3.0 0.00 0.24 0.00 74 1010.3
20260510083111 42 129 0.0 2.0 0.00 0.24 0.00 74 1010.3
20260510082910 42 129 0.0 3.0 0.00 0.24 0.00 74 1010.3
20260510082710 42 129 0.0 3.0 0.00 0.24 0.00 73 1010.2
20260510082510 42 114 0.0 5.0 0.00 0.24 0.00 73 1010.3
20260510082310 42 33 1.0 5.0 0.00 0.24 0.00 73 1010.2
20260510082109 42 354 1.0 5.0 0.00 0.24 0.00 73 1010.2
20260510081909 42 344 1.0 5.0 0.00 0.24 0.00 72 1010.2
20260510081709 42 325 1.0 5.0 0.00 0.24 0.00 72 1010.2
20260510081508 43 311 1.0 4.0 0.00 0.24 0.00 72 1010.1
20260510081308 43 306 1.0 4.0 0.00 0.24 0.00 72 1010.1
20260510081108 43 334 1.0 4.0 0.00 0.24 0.00 72 1010.1
20260510080907 43 4 1.0 5.0 0.00 0.24 0.00 72 1010.1
20260510080707 43 2 1.0 5.0 0.00 0.24 0.00 72 1010.1
20260510080507 43 348 1.0 7.0 0.00 0.24 0.00 72 1010.0
20260510080306 43 353 2.0 7.0 0.00 0.24 0.00 71 1010.0
20260510080106 43 337 2.0 7.0 0.00 0.24 0.00 71 1009.8
20260510075906 43 302 2.0 15.0 0.00 0.24 0.00 71 1009.9
20260510075706 43 48 2.0 16.0 0.00 0.24 0.00 71 1009.9
20260510075505 44 34 2.0 16.0 0.00 0.24 0.00 70 1009.8
20260510075306 44 337 3.0 16.0 0.00 0.24 0.00 70 1009.9
20260510075105 44 29 4.0 16.0 0.00 0.24 0.00 70 1009.9
20260510074904 44 354 2.0 9.0 0.00 0.24 0.00 70 1009.9
20260510074704 44 354 2.0 7.0 0.00 0.24 0.00 71 1009.8
20260510074504 44 334 2.0 7.0 0.00 0.24 0.00 72 1009.8
20260510074304 44 276 1.0 7.0 0.00 0.24 0.00 72 1009.8
20260510074103 44 325 2.0 7.0 0.00 0.24 0.00 72 1009.8
20260510073903 44 199 2.0 7.0 0.00 0.24 0.00 72 1009.6
20260510073703 44 342 1.0 5.0 0.00 0.24 0.00 72 1009.7
20260510073502 44 339 1.0 4.0 0.00 0.24 0.00 72 1009.7
20260510073302 44 357 2.0 4.0 0.00 0.24 0.00 73 1009.6
20260510073102 44 354 1.0 6.0 0.00 0.24 0.00 73 1009.6
20260510072901 44 12 1.0 6.0 0.00 0.24 0.00 73 1009.6
20260510072701 44 357 1.0 7.0 0.00 0.24 0.00 74 1009.6
20260510072501 44 358 1.0 13.0 0.00 0.24 0.00 73 1009.6
20260510072300 44 29 2.0 14.0 0.00 0.24 0.00 73 1009.6
20260510072100 44 339 2.0 14.0 0.00 0.24 0.00 73 1009.5
20260510071900 44 321 2.0 14.0 0.00 0.24 0.00 72 1009.5
20260510071700 45 315 3.0 14.0 0.00 0.24 0.00 72 1009.5
20260510071459 45 347 2.0 14.0 0.00 0.24 0.00 72 1009.4
20260510071259 45 354 2.0 6.0 0.00 0.24 0.00 72 1009.5
20260510071059 45 331 1.0 6.0 0.00 0.24 0.00 72 1009.4
20260510070858 45 291 1.0 6.0 0.00 0.24 0.00 73 1009.5
20260510070658 45 280 1.0 6.0 0.00 0.24 0.00 73 1009.4
20260510070458 45 360 1.0 6.0 0.00 0.24 0.00 73 1009.4
20260510070257 45 62 1.0 6.0 0.00 0.24 0.00 73 1009.4
20260510070057 45 61 1.0 4.0 0.00 0.24 0.00 73 1009.4
20260510065857 45 360 1.0 4.0 0.00 0.24 0.00 73 1009.4
20260510065657 46 333 0.0 4.0 0.00 0.24 0.00 73 1009.4
20260510065456 46 339 1.0 6.0 0.00 0.24 0.00 73 1009.3
20260510065256 46 298 1.0 6.0 0.00 0.24 0.00 72 1009.2
20260510065056 46 294 1.0 6.0 0.00 0.24 0.00 72 1009.1
20260510064855 46 279 2.0 6.0 0.00 0.24 0.00 72 1009.3
20260510064655 46 8 2.0 6.0 0.00 0.24 0.00 72 1009.2
20260510064455 46 342 2.0 6.0 0.00 0.24 0.00 72 1009.3
20260510064254 46 340 2.0 6.0 0.00 0.24 0.00 73 1009.2
20260510064054 46 39 2.0 6.0 0.00 0.24 0.00 73 1009.2
20260510063854 46 38 2.0 6.0 0.00 0.24 0.00 73 1009.2
20260510063654 46 32 2.0 6.0 0.00 0.24 0.00 73 1009.3
20260510063453 46 31 1.0 6.0 0.00 0.24 0.00 74 1009.3
20260510063253 46 318 1.0 3.0 0.00 0.24 0.00 74 1009.3
20260510063053 46 27 1.0 3.0 0.00 0.24 0.00 74 1009.3
20260510062852 46 22 1.0 3.0 0.00 0.24 0.00 74 1009.2
20260510062652 46 43 1.0 3.0 0.00 0.24 0.00 74 1009.2
20260510062452 47 360 1.0 3.0 0.00 0.24 0.00 74 1009.2
20260510062251 47 287 1.0 5.0 0.00 0.24 0.00 74 1009.2
20260510062051 47 351 1.0 5.0 0.00 0.24 0.00 75 1009.1
20260510061851 47 42 1.0 6.0 0.00 0.24 0.00 75 1009.1
20260510061651 47 54 2.0 6.0 0.00 0.24 0.00 75 1009.1
20260510061450 47 59 2.0 6.0 0.00 0.24 0.00 75 1009.1
20260510061250 47 64 1.0 6.0 0.00 0.24 0.00 76 1009.0
20260510061050 47 28 1.0 6.0 0.00 0.24 0.00 78 1009.0
20260510060849 47 29 0.0 2.0 0.00 0.24 0.00 78 1008.9
20260510060649 47 29 0.0 2.0 0.00 0.24 0.00 78 1009.0
20260510060449 47 29 0.0 2.0 0.00 0.24 0.00 78 1008.9
20260510060248 47 29 0.0 2.0 0.00 0.24 0.00 78 1008.9
20260510060048 47 29 0.0 2.0 0.00 0.24 0.00 77 1008.9
20260510055848 47 29 0.0 2.0 0.00 0.24 0.00 77 1008.8
20260510055648 47 29 0.0 2.0 0.00 0.24 0.00 77 1008.9
20260510055447 47 29 0.0 2.0 0.00 0.24 0.00 77 1008.9
20260510055247 47 29 0.0 2.0 0.00 0.24 0.00 77 1008.8
20260510055047 47 0 0.0 2.0 0.00 0.24 0.00 76 1008.8
20260510054846 47 29 0.0 2.0 0.00 0.24 0.00 76 1008.7
20260510054646 47 28 0.0 2.0 0.00 0.24 0.00 76 1008.5
20260510054446 48 0 0.0 2.0 0.00 0.24 0.00 76 1008.6
20260510054245 48 29 0.0 2.0 0.00 0.24 0.00 76 1008.6
20260510054045 48 29 0.0 2.0 0.00 0.24 0.00 76 1008.6
20260510053845 47 0 0.0 0.0 0.00 0.24 0.00 77 1008.6
20260510053645 48 0 0.0 0.0 0.00 0.24 0.00 76 1008.5
20260510053444 48 0 0.0 0.0 0.00 0.24 0.00 77 1008.6
20260510053244 48 0 0.0 0.0 0.00 0.24 0.00 77 1008.5
20260510053044 48 0 0.0 0.0 0.00 0.24 0.00 76 1008.5
20260510052843 48 0 0.0 0.0 0.00 0.24 0.00 76 1008.4
20260510052643 48 0 0.0 0.0 0.00 0.24 0.00 76 1008.4
20260510052443 48 0 0.0 1.0 0.00 0.24 0.00 76 1008.3
20260510052242 48 0 0.0 1.0 0.00 0.24 0.00 76 1008.3
20260510052042 48 0 0.0 1.0 0.00 0.24 0.00 76 1008.4
20260510051842 48 29 0.0 2.0 0.00 0.24 0.00 76 1008.4
20260510051642 48 0 0.0 2.0 0.00 0.24 0.00 76 1008.4
20260510051441 48 29 0.0 2.0 0.00 0.24 0.00 75 1008.4
20260510051241 48 29 0.0 2.0 0.00 0.24 0.00 76 1008.4
20260510051041 48 0 0.0 2.0 0.00 0.24 0.00 75 1008.5
20260510050840 48 0 0.0 2.0 0.00 0.24 0.00 76 1008.3
20260510050640 48 29 0.0 2.0 0.00 0.24 0.00 76 1008.2
20260510050440 48 29 0.0 2.0 0.00 0.24 0.00 76 1008.4
20260510050239 48 0 0.0 2.0 0.00 0.24 0.00 76 1008.4
20260510050039 48 29 0.0 4.0 0.00 0.24 0.00 76 1008.4
20260510045839 48 29 0.0 5.0 0.00 0.24 0.00 76 1008.3
20260510045639 48 29 0.0 5.0 0.00 0.24 0.00 76 1008.3
20260510045438 48 48 0.0 5.0 0.00 0.24 0.00 76 1008.3
20260510045238 48 47 1.0 5.0 0.00 0.24 0.00 76 1008.2
20260510045038 48 347 1.0 5.0 0.00 0.24 0.00 77 1008.2
20260510044837 48 344 1.0 6.0 0.00 0.24 0.00 77 1008.1
20260510044637 48 111 1.0 6.0 0.00 0.24 0.00 77 1008.0
20260510044437 48 68 0.0 6.0 0.00 0.24 0.00 77 1007.9
20260510044236 49 41 1.0 6.0 0.00 0.24 0.00 77 1007.9
20260510044036 49 340 1.0 6.0 0.00 0.24 0.00 77 1007.9
20260510043836 49 314 0.0 4.0 0.00 0.24 0.00 77 1007.9
20260510043635 49 29 1.0 4.0 0.00 0.24 0.00 77 1008.0
20260510043435 49 360 1.0 4.0 0.00 0.24 0.00 77 1008.0
20260510043235 49 337 1.0 6.0 0.00 0.24 0.00 77 1008.0
20260510043035 49 329 1.0 6.0 0.00 0.24 0.00 78 1007.9
20260510042834 49 29 1.0 6.0 0.00 0.24 0.00 78 1007.9
20260510042634 50 355 1.0 7.0 0.00 0.24 0.00 77 1007.8
20260510042434 50 337 2.0 7.0 0.00 0.24 0.00 78 1007.7
20260510042233 50 335 2.0 7.0 0.00 0.24 0.00 78 1007.8
20260510042033 49 2 2.0 7.0 0.00 0.24 0.00 78 1007.9
20260510041833 49 3 2.0 7.0 0.00 0.24 0.00 78 1007.9
20260510041632 49 2 2.0 7.0 0.00 0.24 0.00 79 1007.9
20260510041432 50 53 1.0 6.0 0.00 0.24 0.00 79 1007.9
20260510041232 50 350 1.0 7.0 0.00 0.24 0.00 80 1007.7
20260510041032 50 348 1.0 7.0 0.00 0.24 0.00 79 1007.4
20260510040831 50 348 2.0 7.0 0.00 0.24 0.00 79 1007.3
20260510040631 50 354 3.0 10.0 0.00 0.24 0.00 79 1007.5
20260510040431 50 330 2.0 11.0 0.00 0.24 0.00 79 1007.4
20260510040230 50 318 2.0 11.0 0.00 0.24 0.00 78 1007.3
20260510040030 50 334 3.0 11.0 0.00 0.24 0.00 79 1007.2
20260510035830 50 357 3.0 11.0 0.00 0.24 0.24 79 1007.1
20260510035630 50 354 2.0 9.0 0.00 0.24 0.24 80 1007.1
20260510035429 50 29 2.0 9.0 0.00 0.24 0.24 80 1007.1
20260510035229 51 329 2.0 9.0 0.00 0.24 0.24 81 1007.1
20260510035029 51 23 3.0 9.0 0.00 0.24 0.24 81 1007.1
20260510034828 51 343 3.0 9.0 0.00 0.24 0.24 82 1007.0
20260510034628 51 6 3.0 7.0 0.00 0.24 0.24 83 1007.1
20260510034428 50 322 2.0 7.0 0.00 0.24 0.24 83 1007.2
20260510034228 50 321 2.0 6.0 0.00 0.24 0.24 84 1007.1
20260510034027 50 343 1.0 4.0 0.00 0.24 0.24 85 1006.9
20260510033827 50 337 0.0 4.0 0.00 0.24 0.24 85 1006.8
20260510033626 50 329 1.0 4.0 0.00 0.24 0.24 86 1006.7
20260510033426 51 280 1.0 4.0 0.00 0.24 0.24 86 1006.5
20260510033226 51 141 1.0 3.0 0.00 0.24 0.24 86 1006.6
20260510033026 51 100 1.0 2.0 0.00 0.24 0.24 87 1006.5
20260510032825 51 52 1.0 2.0 0.00 0.24 0.24 87 1006.5
20260510032625 51 257 0.0 2.0 0.00 0.24 0.24 88 1006.5
20260510032425 51 256 0.0 3.0 0.00 0.24 0.24 89 1006.5
20260510032224 51 256 0.0 3.0 0.00 0.24 0.24 89 1006.5
20260510032024 51 278 0.0 3.0 0.00 0.24 0.24 89 1006.5
20260510031824 51 309 1.0 3.0 0.00 0.24 0.24 90 1006.4
20260510031623 51 320 0.0 3.0 0.00 0.24 0.24 90 1006.4
20260510031423 51 95 0.0 3.0 0.00 0.24 0.24 92 1006.4
20260510031223 51 87 1.0 3.0 0.00 0.24 0.24 92 1006.4
20260510031023 52 338 1.0 4.0 0.00 0.24 0.24 93 1006.4
20260510030822 52 342 1.0 4.0 0.00 0.24 0.24 94 1006.4
20260510030622 52 354 1.0 4.0 0.00 0.24 0.24 94 1006.4
20260510030422 52 254 1.0 4.0 0.00 0.24 0.24 95 1006.4
20260510030221 52 232 1.0 4.0 0.00 0.24 0.24 95 1006.4
20260510030021 52 232 1.0 2.0 0.00 0.24 0.24 95 1006.5
20260510025821 52 232 0.0 3.0 0.00 0.24 0.24 95 1006.4
20260510025621 52 232 0.0 3.0 0.00 0.24 0.24 95 1006.4
20260510025420 51 232 0.0 3.0 0.00 0.24 0.24 95 1006.4
20260510025220 51 232 0.0 3.0 0.00 0.24 0.24 95 1006.3
20260510025020 51 232 0.0 3.0 0.00 0.24 0.24 95 1006.2
20260510024819 51 0 0.0 2.0 0.00 0.24 0.24 95 1006.2
20260510024619 51 0 0.0 2.0 0.00 0.24 0.24 95 1006.1
20260510024419 51 0 0.0 2.0 0.00 0.24 0.24 95 1006.1
20260510024218 51 232 0.0 2.0 0.00 0.24 0.24 95 1006.1
20260510024018 51 232 0.0 2.0 0.00 0.24 0.24 95 1006.1
20260510023753 51 232 0.0 1.0 0.00 0.24 0.24 95 1006.0
20260510023552 51 0 0.0 1.0 0.00 0.24 0.24 95 1006.1
20260510023352 51 232 0.0 2.0 0.00 0.24 0.24 95 1006.0
20260510023152 51 232 0.0 2.0 0.00 0.24 0.24 95 1006.0
20260510022952 51 0 0.0 2.0 0.00 0.24 0.24 95 1006.0
20260510022751 51 232 0.0 2.0 0.00 0.24 0.24 95 1006.0
20260510022551 51 232 0.0 2.0 0.00 0.24 0.24 95 1006.1
20260510022351 51 232 0.0 2.0 0.00 0.24 0.24 95 1006.1
20260510022150 52 232 0.0 2.0 0.00 0.24 0.24 95 1006.1
20260510021950 52 232 0.0 2.0 0.00 0.24 0.24 95 1006.1
20260510021750 52 232 0.0 2.0 0.00 0.24 0.24 95 1006.0
20260510021549 52 232 0.0 3.0 0.00 0.24 0.24 95 1005.9
20260510021349 52 232 1.0 4.0 0.00 0.24 0.24 95 1005.9
20260510021149 52 232 0.0 4.0 0.00 0.24 0.24 95 1005.9
20260510020948 52 232 0.0 4.0 0.00 0.24 0.24 95 1005.9
20260510020748 52 241 1.0 4.0 0.00 0.24 0.24 95 1005.8
20260510020548 52 267 1.0 4.0 0.00 0.24 0.24 94 1005.8
20260510020348 52 268 1.0 4.0 0.00 0.24 0.24 95 1005.7
20260510020147 52 246 1.0 4.0 0.00 0.24 0.24 94 1005.7
20260510015947 52 236 0.0 3.0 0.00 0.24 0.24 94 1005.7
20260510015747 52 235 0.0 3.0 0.00 0.24 0.24 94 1005.7
20260510015546 52 234 1.0 3.0 0.00 0.24 0.24 94 1005.7
20260510015346 52 224 1.0 3.0 0.00 0.24 0.24 94 1005.7
20260510015146 52 219 1.0 4.0 0.00 0.24 0.24 94 1005.7
20260510014946 52 219 1.0 4.0 0.00 0.24 0.24 94 1005.7
20260510014745 52 219 0.0 4.0 0.00 0.24 0.24 94 1005.6
20260510014545 52 219 1.0 4.0 0.00 0.24 0.24 94 1005.5
20260510014345 52 252 1.0 4.0 0.00 0.24 0.24 94 1005.5
20260510014144 52 277 0.0 3.0 0.00 0.24 0.24 94 1005.4
20260510013944 52 282 0.0 3.0 0.00 0.24 0.24 94 1005.4
20260510013744 52 260 1.0 3.0 0.00 0.24 0.24 94 1005.4
20260510013543 52 156 0.0 3.0 0.00 0.24 0.24 94 1005.3
20260510013343 52 217 0.0 4.0 0.00 0.24 0.24 93 1005.2
20260510013143 52 217 1.0 4.0 0.00 0.24 0.24 93 1005.1
20260510012942 52 217 1.0 4.0 0.00 0.24 0.24 93 1005.1
20260510012742 52 217 1.0 4.0 0.00 0.24 0.24 93 1005.0
20260510012542 52 217 0.0 4.0 0.00 0.24 0.24 93 1005.0
20260510012342 52 217 0.0 2.0 0.00 0.24 0.24 93 1005.0
20260510012141 53 217 0.0 2.0 0.00 0.24 0.24 93 1005.0
20260510011941 53 217 0.0 4.0 0.00 0.24 0.24 92 1005.0
20260510011741 53 217 0.0 6.0 0.00 0.24 0.24 92 1004.9
20260510011540 53 217 0.0 6.0 0.00 0.24 0.24 92 1004.8
20260510011340 53 217 1.0 6.0 0.00 0.24 0.24 92 1004.8
20260510011140 53 207 1.0 6.0 0.00 0.24 0.24 92 1004.7
20260510010939 53 211 1.0 6.0 0.00 0.24 0.24 92 1004.6
20260510010739 53 203 2.0 6.0 0.00 0.24 0.24 92 1004.6
20260510010539 53 201 2.0 4.0 0.00 0.24 0.24 92 1004.6
20260510010339 53 201 1.0 4.0 0.00 0.24 0.24 92 1004.6
20260510010138 53 200 1.0 5.0 0.00 0.24 0.24 91 1004.5
20260510005938 53 200 1.0 5.0 0.00 0.24 0.24 91 1004.5
20260510005738 53 200 1.0 5.0 0.00 0.24 0.24 91 1004.4
20260510005537 53 207 1.0 5.0 0.00 0.24 0.24 91 1004.4
20260510005337 54 214 1.0 5.0 0.00 0.24 0.24 91 1004.4
20260510005137 54 211 2.0 5.0 0.00 0.24 0.24 91 1004.3
20260510004936 54 233 2.0 5.0 0.00 0.24 0.24 91 1004.3
20260510004736 54 236 1.0 6.0 0.00 0.24 0.24 91 1004.3
20260510004536 54 236 1.0 7.0 0.00 0.24 0.24 91 1004.1
20260510004336 54 246 1.0 7.0 0.00 0.24 0.24 91 1004.1
20260510004135 54 210 2.0 7.0 0.00 0.24 0.24 91 1004.0
20260510003935 54 187 3.0 7.0 0.00 0.24 0.24 91 1004.0
20260510003735 54 226 3.0 7.0 0.00 0.24 0.24 91 1004.0
20260510003534 54 229 2.0 6.0 0.00 0.24 0.24 90 1004.0
20260510003334 54 198 3.0 6.0 0.00 0.24 0.24 90 1004.0
20260510003134 54 222 2.0 6.0 0.00 0.24 0.24 90 1004.0
20260510002933 54 207 2.0 6.0 0.00 0.24 0.24 90 1004.0
20260510002733 54 197 2.0 6.0 0.00 0.24 0.24 90 1004.1
20260510002533 54 193 2.0 6.0 0.00 0.24 0.24 90 1004.0
20260510002333 54 206 1.0 6.0 0.00 0.24 0.24 90 1004.0
20260510002132 54 213 2.0 6.0 0.00 0.24 0.24 90 1004.0
20260510001932 54 217 2.0 6.0 0.00 0.24 0.24 90 1004.0
20260510001732 54 168 1.0 6.0 0.00 0.24 0.24 90 1003.9
20260510001531 54 178 1.0 6.0 0.00 0.24 0.24 90 1004.0
20260510001331 54 245 2.0 6.0 0.00 0.24 0.24 90 1004.0
20260510001131 54 212 2.0 6.0 0.00 0.24 0.24 89 1003.9
20260510000930 54 241 2.0 6.0 0.00 0.24 0.24 89 1003.9
20260510000730 54 279 1.0 6.0 0.00 0.24 0.24 90 1003.8
20260510000530 54 271 1.0 6.0 0.00 0.24 0.24 90 1003.9
20260510000330 54 139 1.0 6.0 0.00 0.24 0.24 90 1003.9
20260510000129 54 192 1.0 6.0 0.00 0.24 0.24 90 1003.8
20260509235929 54 185 1.0 5.0 0.00 0.24 0.24 89 1003.7
20260509235729 54 233 1.0 5.0 0.00 0.24 0.24 89 1003.7
20260509235528 54 203 1.0 6.0 0.00 0.24 0.24 89 1003.6
20260509235328 54 173 1.0 7.0 0.00 0.24 0.24 89 1003.6
20260509235128 54 286 1.0 7.0 0.00 0.24 0.24 89 1003.6
20260509234927 54 246 1.0 7.0 0.00 0.24 0.24 89 1003.5
20260509234727 54 211 3.0 9.0 0.00 0.24 0.24 89 1003.5
20260509234527 54 235 3.0 9.0 0.00 0.24 0.24 89 1003.5
20260509234327 54 255 2.0 9.0 0.00 0.24 0.24 89 1003.4
20260509234126 54 220 4.0 9.0 0.00 0.24 0.24 89 1003.5
20260509233926 54 208 5.0 9.0 0.01 0.24 0.24 89 1003.5
20260509233726 54 199 3.0 10.0 0.01 0.24 0.24 89 1003.6
20260509233525 54 140 2.0 10.0 0.01 0.24 0.24 88 1003.6
20260509233325 54 153 3.0 10.0 0.01 0.24 0.24 88 1003.4
20260509233125 54 193 4.0 10.0 0.01 0.24 0.24 88 1003.2
20260509232924 54 206 4.0 10.0 0.01 0.24 0.24 88 1003.2
20260509232724 54 216 4.0 8.0 0.01 0.24 0.24 88 1003.2
20260509232524 54 237 4.0 12.0 0.01 0.24 0.24 88 1003.2
20260509232324 55 213 4.0 12.0 0.01 0.24 0.24 88 1003.1
20260509232123 54 210 4.0 12.0 0.01 0.24 0.24 88 1003.0
20260509231923 55 230 4.0 13.0 0.01 0.24 0.24 87 1003.2
20260509231723 55 227 5.0 14.0 0.01 0.24 0.24 87 1003.1
20260509231522 54 206 5.0 14.0 0.01 0.24 0.24 87 1003.0
20260509231322 54 201 7.0 14.0 0.01 0.24 0.24 87 1003.0
20260509231122 54 211 6.0 14.0 0.01 0.24 0.24 87 1003.0
20260509230921 54 215 5.0 13.0 0.01 0.24 0.24 87 1003.1
20260509230721 54 225 5.0 13.0 0.01 0.24 0.24 88 1003.0
20260509230521 54 218 7.0 15.0 0.01 0.24 0.24 87 1003.0
20260509230321 54 218 6.0 15.0 0.01 0.24 0.24 87 1003.0
20260509230120 54 220 5.0 15.0 0.01 0.24 0.24 87 1003.0
20260509225920 54 216 7.0 15.0 0.01 0.24 0.24 87 1003.0
20260509225720 54 216 7.0 15.0 0.02 0.24 0.24 87 1003.0
20260509225519 54 215 7.0 15.0 0.03 0.24 0.24 87 1003.1
20260509225319 54 223 7.0 18.0 0.04 0.24 0.24 87 1003.0
20260509223918 54 215 5.0 15.0 0.19 0.23 0.23 90 1002.8
20260509223718 54 215 7.0 15.0 0.21 0.23 0.23 90 1002.9
20260509223517 53 216 6.0 15.0 0.21 0.23 0.23 91 1002.9
20260509223317 53 222 5.0 15.0 0.22 0.23 0.23 92 1002.9
20260509223048 53 211 6.0 15.0 0.22 0.23 0.23 93 1003.0
20260509222848 52 210 6.0 15.0 0.23 0.23 0.23 93 1003.0
20260509222648 52 210 6.0 15.0 0.23 0.23 0.23 92 1003.1
20260509222347 51 213 7.0 15.0 0.23 0.23 0.23 92 1003.3
20260509222147 51 220 6.0 15.0 0.23 0.23 0.23 92 1003.3
20260509221947 51 220 6.0 19.0 0.23 0.23 0.23 92 1003.2
20260509221746 52 215 7.0 19.0 0.23 0.23 0.23 92 1003.1
20260509221546 52 214 9.0 19.0 0.23 0.23 0.23 92 1003.4
20260509221346 52 211 9.0 19.0 0.23 0.23 0.23 92 1003.6
20260509221145 52 213 9.0 19.0 0.23 0.23 0.23 91 1003.6
20260509220945 52 224 8.0 19.0 0.23 0.23 0.23 91 1003.6
20260509220745 52 224 6.0 18.0 0.23 0.23 0.23 91 1003.4
20260509220545 52 218 7.0 19.0 0.23 0.23 0.23 92 1003.4
20260509220345 52 217 6.0 19.0 0.23 0.23 0.23 92 1003.0
20260509220144 52 227 5.0 21.0 0.23 0.23 0.23 92 1003.6
20260509215944 52 227 5.0 21.0 0.23 0.23 0.23 91 1003.7
20260509215743 53 211 6.0 21.0 0.22 0.22 0.22 91 1003.9
20260509215543 53 194 7.0 21.0 0.21 0.21 0.21 91 1004.0
20260509215343 53 184 7.0 21.0 0.19 0.19 0.19 91 1004.2
20260509215142 53 152 4.0 24.0 0.19 0.19 0.19 90 1004.2
20260509214942 53 193 6.0 25.0 0.17 0.17 0.17 86 1004.3
20260509214742 54 231 6.0 25.0 0.16 0.16 0.16 84 1004.1
20260509214542 55 239 8.0 25.0 0.15 0.15 0.15 82 1004.2
20260509214341 57 190 10.0 25.0 0.12 0.12 0.12 82 1004.3
20260509214141 58 197 10.0 22.0 0.06 0.06 0.06 82 1004.1
20260509213941 59 208 11.0 22.0 0.04 0.04 0.04 80 1004.0
20260509213740 59 256 8.0 22.0 0.02 0.02 0.02 78 1003.4
20260509213540 60 250 5.0 18.0 0.02 0.02 0.02 77 1003.1
20260509213340 60 197 4.0 18.0 0.01 0.01 0.01 78 1002.9
20260509213139 60 201 6.0 16.0 0.01 0.01 0.01 81 1002.6
20260509213023 60 217 7.0 16.0 0.00 0.00 0.00 81 1002.6
20260509212823 61 210 7.0 16.0 0.00 0.00 0.00 80 1002.8
20260509212640 61 209 7.0 15.0 0.00 0.00 0.00 79 1002.3
20260509212440 61 211 6.0 15.0 0.00 0.00 0.00 78 1002.4
20260509212240 61 196 6.0 15.0 0.00 0.00 0.00 78 1002.4
20260509212039 61 213 5.0 15.0 0.00 0.00 0.00 78 1002.4
20260509211839 61 212 6.0 15.0 0.00 0.00 0.00 77 1002.3
20260509211639 61 214 7.0 15.0 0.00 0.00 0.00 77 1002.4
20260509211508 61 219 8.0 15.0 0.00 0.00 0.00 77 1002.3
20260509211307 61 215 7.0 15.0 0.00 0.00 0.00 77 1002.3
20260509211107 61 218 7.0 14.0 0.00 0.00 0.00 77 1002.3
20260509210907 61 210 7.0 16.0 0.00 0.00 0.00 76 1002.3
20260509210707 61 205 7.0 17.0 0.00 0.00 0.00 76 1002.2
20260509210506 61 220 6.0 17.0 0.00 0.00 0.00 76 1002.4
20260509210306 62 218 7.0 17.0 0.00 0.00 0.00 76 1002.2
20260509210106 62 221 7.0 18.0 0.00 0.00 0.00 76 1002.2
20260509205905 62 224 6.0 27.0 0.00 0.00 0.00 76 1002.2
20260509205705 62 219 6.0 27.0 0.00 0.00 0.00 76 1002.2
20260509205505 62 214 9.0 27.0 0.00 0.00 0.00 75 1002.1
20260509205307 62 199 9.0 27.0 0.00 0.00 0.00 75 1002.0
20260509205104 62 212 8.0 27.0 0.00 0.00 0.00 75 1002.0
20260509204904 62 219 8.0 20.0 0.00 0.00 0.00 75 1001.9
20260509204704 62 215 9.0 20.0 0.00 0.00 0.00 74 1001.8
20260509204503 62 220 9.0 20.0 0.00 0.00 0.00 74 1001.8
20260509204303 62 216 7.0 19.0 0.00 0.00 0.00 73 1001.9
20260509204103 62 212 7.0 16.0 0.00 0.00 0.00 73 1001.9
20260509203902 62 210 7.0 20.0 0.00 0.00 0.00 73 1001.9
20260509203702 62 218 8.0 20.0 0.00 0.00 0.00 73 1001.9
20260509203502 62 209 8.0 20.0 0.00 0.00 0.00 73 1001.9
20260509203301 62 214 9.0 21.0 0.00 0.00 0.00 73 1001.9
20260509203101 63 227 8.0 22.0 0.00 0.00 0.00 73 1001.9
20260509202901 63 218 10.0 22.0 0.00 0.00 0.00 73 1002.0
20260509202701 63 206 11.0 22.0 0.00 0.00 0.00 73 1002.1
20260509202500 63 213 11.0 22.0 0.00 0.00 0.00 73 1002.2
20260509202300 63 214 8.0 22.0 0.00 0.00 0.00 73 1002.2
20260509202100 63 202 9.0 22.0 0.00 0.00 0.00 73 1002.3
20260509201859 63 210 10.0 22.0 0.00 0.00 0.00 73 1002.3
20260509201659 63 214 10.0 20.0 0.00 0.00 0.00 73 1002.3
20260509201459 63 215 8.0 18.0 0.00 0.00 0.00 73 1002.2
20260509201258 63 225 9.0 18.0 0.00 0.00 0.00 74 1002.2
20260509201058 63 219 8.0 18.0 0.00 0.00 0.00 74 1002.2
20260509200858 64 217 6.0 18.0 0.00 0.00 0.00 75 1002.2
20260509200658 63 220 9.0 20.0 0.00 0.00 0.00 74 1002.2
20260509200457 64 212 9.0 20.0 0.00 0.00 0.00 74 1002.2
20260509200257 64 224 6.0 20.0 0.00 0.00 0.00 74 1002.2
20260509200057 64 219 9.0 20.0 0.00 0.00 0.00 74 1002.3
20260509195856 64 226 9.0 20.0 0.00 0.00 0.00 73 1002.3
20260509195656 64 217 8.0 20.0 0.00 0.00 0.00 72 1002.2
20260509195456 64 211 9.0 19.0 0.00 0.00 0.00 71 1002.1
20260509195255 64 221 7.0 19.0 0.00 0.00 0.00 71 1002.1
20260509195055 64 222 7.0 19.0 0.00 0.00 0.00 72 1002.1
20260509194855 63 211 11.0 19.0 0.00 0.00 0.00 72 1002.1
20260509194655 63 216 8.0 19.0 0.00 0.00 0.00 72 1002.2
20260509194454 62 224 7.0 16.0 0.00 0.00 0.00 73 1002.3
20260509194254 62 211 8.0 17.0 0.00 0.00 0.00 74 1002.4
20260509194054 62 208 7.0 17.0 0.00 0.00 0.00 74 1002.6
20260509193853 62 199 6.0 17.0 0.00 0.00 0.00 75 1002.7
20260509193653 62 202 7.0 17.0 0.00 0.00 0.00 75 1003.0
20260509193453 62 214 7.0 17.0 0.00 0.00 0.00 75 1003.2
20260509193252 62 219 6.0 17.0 0.00 0.00 0.00 75 1003.3
20260509193052 63 215 6.0 17.0 0.00 0.00 0.00 75 1003.3
20260509192852 63 207 8.0 17.0 0.00 0.00 0.00 74 1003.3
20260509192652 63 218 9.0 17.0 0.00 0.00 0.00 74 1003.4
20260509192451 63 217 7.0 14.0 0.00 0.00 0.00 74 1003.3
20260509192251 63 213 6.0 14.0 0.00 0.00 0.00 74 1003.4
20260509192051 63 216 7.0 14.0 0.00 0.00 0.00 74 1003.1
20260509191850 63 216 8.0 14.0 0.00 0.00 0.00 73 1002.9
20260509191650 63 219 9.0 14.0 0.00 0.00 0.00 73 1002.9
20260509191450 64 216 8.0 14.0 0.00 0.00 0.00 73 1003.0
20260509191249 64 210 5.0 14.0 0.00 0.00 0.00 72 1003.1
20260509191049 64 216 6.0 14.0 0.00 0.00 0.00 73 1003.2
20260509190849 64 214 8.0 19.0 0.00 0.00 0.00 72 1003.2
20260509190649 64 217 7.0 19.0 0.00 0.00 0.00 72 1003.2
20260509190448 64 228 7.0 19.0 0.00 0.00 0.00 72 1003.1
20260509190248 64 222 9.0 22.0 0.00 0.00 0.00 71 1003.1
20260509190048 64 220 8.0 22.0 0.00 0.00 0.00 71 1003.0
20260509185847 65 219 8.0 22.0 0.00 0.00 0.00 71 1003.0
20260509185647 65 221 8.0 22.0 0.00 0.00 0.00 71 1002.8
20260509185447 64 218 9.0 22.0 0.00 0.00 0.00 71 1002.9
20260509185246 64 217 10.0 20.0 0.00 0.00 0.00 70 1002.9
20260509185046 65 219 11.0 20.0 0.00 0.00 0.00 69 1002.9
20260509184846 65 219 7.0 18.0 0.00 0.00 0.00 69 1002.9
20260509184645 66 222 8.0 18.0 0.00 0.00 0.00 70 1002.7
20260509184445 66 219 10.0 21.0 0.00 0.00 0.00 69 1002.9
20260509184245 66 219 10.0 21.0 0.00 0.00 0.00 68 1002.9
20260509184045 67 227 6.0 21.0 0.00 0.00 0.00 69 1002.9
20260509183844 66 230 7.0 21.0 0.00 0.00 0.00 70 1002.7
20260509183644 66 213 8.0 21.0 0.00 0.00 0.00 71 1002.9
20260509183444 66 216 9.0 16.0 0.00 0.00 0.00 70 1002.9
20260509183243 65 219 10.0 21.0 0.00 0.00 0.00 70 1003.0
20260509183043 65 228 7.0 22.0 0.00 0.00 0.00 70 1003.0
20260509182843 65 218 7.0 22.0 0.00 0.00 0.00 71 1003.1
20260509182643 65 219 8.0 22.0 0.00 0.00 0.00 71 1003.0
20260509182442 65 219 10.0 22.0 0.00 0.00 0.00 71 1003.0
20260509182242 65 214 9.0 22.0 0.00 0.00 0.00 70 1003.0
20260509182042 65 209 9.0 16.0 0.00 0.00 0.00 70 1003.2
20260509181841 65 215 8.0 19.0 0.00 0.00 0.00 69 1003.2
20260509181641 66 229 6.0 19.0 0.00 0.00 0.00 70 1003.2
20260509181441 66 223 7.0 19.0 0.00 0.00 0.00 69 1003.3
20260509181240 65 208 10.0 19.0 0.00 0.00 0.00 70 1003.3
20260509181040 65 205 11.0 19.0 0.00 0.00 0.00 69 1003.3
20260509180840 65 217 8.0 17.0 0.00 0.00 0.00 69 1003.3
20260509180640 65 214 8.0 19.0 0.00 0.00 0.00 71 1003.2
20260509180439 65 204 9.0 19.0 0.00 0.00 0.00 70 1003.3
20260509180239 65 200 8.0 19.0 0.00 0.00 0.00 70 1003.4
20260509180039 65 202 9.0 19.0 0.00 0.00 0.00 70 1003.4
20260509175838 65 215 9.0 19.0 0.00 0.00 0.00 70 1003.5
20260509175638 65 219 8.0 19.0 0.00 0.00 0.00 72 1003.4
20260509175438 64 222 8.0 19.0 0.00 0.00 0.00 72 1003.4
20260509175237 64 213 7.0 19.0 0.00 0.00 0.00 72 1003.4
20260509175037 64 226 6.0 19.0 0.00 0.00 0.00 73 1003.5
20260509174837 64 224 8.0 19.0 0.00 0.00 0.00 73 1003.5
20260509174636 64 229 8.0 19.0 0.00 0.00 0.00 72 1003.6
20260509174436 64 235 5.0 13.0 0.00 0.00 0.00 72 1003.5
20260509174236 64 218 6.0 15.0 0.00 0.00 0.00 72 1003.7
20260509174036 64 215 7.0 15.0 0.00 0.00 0.00 72 1003.7
20260509173835 64 208 7.0 16.0 0.00 0.00 0.00 71 1003.7
20260509173635 64 214 8.0 18.0 0.00 0.00 0.00 71 1003.7
20260509173435 64 251 5.0 18.0 0.00 0.00 0.00 70 1003.8
20260509173234 64 238 6.0 18.0 0.00 0.00 0.00 71 1003.7
20260509173034 65 226 8.0 18.0 0.00 0.00 0.00 70 1003.8
20260509172834 65 221 7.0 18.0 0.00 0.00 0.00 69 1003.8
20260509172634 66 222 6.0 15.0 0.00 0.00 0.00 68 1003.8
20260509172433 66 219 6.0 18.0 0.00 0.00 0.00 69 1003.9
20260509172233 66 232 5.0 19.0 0.00 0.00 0.00 69 1003.9
20260509172033 66 241 5.0 19.0 0.00 0.00 0.00 70 1004.0
20260509171832 65 211 10.0 19.0 0.00 0.00 0.00 70 1004.0
20260509171632 65 213 10.0 19.0 0.00 0.00 0.00 69 1004.1
20260509171432 66 222 7.0 19.0 0.00 0.00 0.00 70 1004.1
20260509171231 65 223 7.0 18.0 0.00 0.00 0.00 71 1004.1
20260509171031 65 219 9.0 18.0 0.00 0.00 0.00 71 1004.1
20260509170831 65 234 7.0 18.0 0.00 0.00 0.00 71 1004.1
20260509170630 64 248 7.0 18.0 0.00 0.00 0.00 71 1004.1
20260509170430 64 226 9.0 18.0 0.00 0.00 0.00 70 1004.2
20260509170230 64 216 8.0 18.0 0.00 0.00 0.00 71 1004.4
20260509170030 64 220 7.0 18.0 0.00 0.00 0.00 71 1004.4
20260509165829 64 219 9.0 19.0 0.00 0.00 0.00 71 1004.5
20260509165629 64 223 7.0 21.0 0.00 0.00 0.00 71 1004.5
20260509165429 65 225 7.0 21.0 0.00 0.00 0.00 70 1004.6
20260509165228 65 215 8.0 21.0 0.00 0.00 0.00 70 1004.6
20260509165028 65 222 9.0 21.0 0.00 0.00 0.00 70 1004.6
20260509164828 65 222 9.0 21.0 0.00 0.00 0.00 70 1004.6
20260509164627 65 217 8.0 21.0 0.00 0.00 0.00 70 1004.4
20260509164427 65 205 9.0 19.0 0.00 0.00 0.00 71 1004.5
20260509164227 65 214 11.0 19.0 0.00 0.00 0.00 70 1004.6
20260509164027 65 220 7.0 18.0 0.00 0.00 0.00 70 1004.6
20260509163826 65 217 7.0 16.0 0.00 0.00 0.00 69 1004.5
20260509163626 65 206 7.0 16.0 0.00 0.00 0.00 70 1004.7
20260509163426 65 197 8.0 18.0 0.00 0.00 0.00 71 1004.6
20260509163225 65 208 8.0 19.0 0.00 0.00 0.00 70 1004.7
20260509163025 64 213 8.0 19.0 0.00 0.00 0.00 71 1004.7
20260509162825 64 213 8.0 19.0 0.00 0.00 0.00 72 1004.6
20260509162624 64 212 9.0 19.0 0.00 0.00 0.00 71 1004.5
20260509162424 64 213 8.0 17.0 0.00 0.00 0.00 71 1004.4
20260509162224 65 224 7.0 17.0 0.00 0.00 0.00 70 1004.4
20260509162024 65 233 6.0 17.0 0.00 0.00 0.00 70 1004.4
20260509161823 65 222 6.0 17.0 0.00 0.00 0.00 70 1004.4
20260509161623 65 212 6.0 15.0 0.00 0.00 0.00 71 1004.6
20260509161423 64 227 7.0 16.0 0.00 0.00 0.00 71 1004.7
20260509161222 64 232 6.0 16.0 0.00 0.00 0.00 71 1004.6
20260509161022 64 230 6.0 16.0 0.00 0.00 0.00 70 1004.6
20260509160822 64 218 7.0 16.0 0.00 0.00 0.00 70 1004.6
20260509160621 64 218 5.0 14.0 0.00 0.00 0.00 71 1004.7
20260509160421 64 220 6.0 14.0 0.00 0.00 0.00 71 1004.6
20260509160221 64 230 6.0 13.0 0.00 0.00 0.00 71 1004.5
20260509160021 64 213 6.0 15.0 0.00 0.00 0.00 71 1004.5
20260509155820 64 229 4.0 15.0 0.00 0.00 0.00 72 1004.6
20260509155620 63 221 4.0 15.0 0.00 0.00 0.00 73 1004.5
20260509155420 63 213 4.0 15.0 0.00 0.00 0.00 72 1004.7
20260509155219 63 213 6.0 15.0 0.00 0.00 0.00 71 1004.7
20260509155019 64 217 5.0 14.0 0.00 0.00 0.00 71 1004.8
20260509154819 64 219 5.0 14.0 0.00 0.00 0.00 73 1004.8
20260509154618 63 225 5.0 14.0 0.00 0.00 0.00 73 1004.8
20260509154419 63 227 5.0 14.0 0.00 0.00 0.00 73 1004.8
20260509154218 63 228 4.0 14.0 0.00 0.00 0.00 72 1004.9
20260509154018 63 222 5.0 14.0 0.00 0.00 0.00 72 1005.0
20260509153817 63 213 5.0 14.0 0.00 0.00 0.00 72 1005.1
20260509153617 63 214 5.0 10.0 0.00 0.00 0.00 72 1005.1
20260509153417 63 213 5.0 15.0 0.00 0.00 0.00 73 1005.2
20260509153216 63 208 3.0 15.0 0.00 0.00 0.00 73 1005.2
20260509153016 63 216 3.0 15.0 0.00 0.00 0.00 74 1005.2
20260509152816 62 217 4.0 15.0 0.00 0.00 0.00 74 1005.2
20260509152615 62 224 6.0 15.0 0.00 0.00 0.00 74 1005.3
20260509152415 62 227 6.0 14.0 0.00 0.00 0.00 75 1005.3
20260509152215 62 226 7.0 14.0 0.00 0.00 0.00 75 1005.4
20260509152015 61 221 7.0 18.0 0.00 0.00 0.00 75 1005.4
20260509151814 61 213 8.0 18.0 0.00 0.00 0.00 75 1005.4
20260509151614 61 209 7.0 18.0 0.00 0.00 0.00 76 1005.4
20260509151414 60 199 5.0 18.0 0.00 0.00 0.00 77 1005.3
20260509151213 60 218 10.0 18.0 0.00 0.00 0.00 77 1005.4
20260509151013 60 219 8.0 16.0 0.00 0.00 0.00 78 1005.3
20260509150813 60 210 8.0 14.0 0.00 0.00 0.00 77 1005.4
20260509150612 60 214 7.0 13.0 0.00 0.00 0.00 78 1005.4
20260509150412 60 211 4.0 13.0 0.00 0.00 0.00 78 1005.3
20260509150212 60 212 5.0 13.0 0.00 0.00 0.00 78 1005.3
20260509150012 60 200 7.0 13.0 0.00 0.00 0.00 78 1005.4
20260509145811 60 199 5.0 13.0 0.00 0.00 0.00 77 1005.2
20260509145611 60 204 5.0 16.0 0.00 0.00 0.00 78 1005.3
20260509145411 60 211 3.0 16.0 0.00 0.00 0.00 79 1005.2
20260509145210 60 209 6.0 16.0 0.00 0.00 0.00 80 1005.2
20260509145010 60 222 6.0 16.0 0.00 0.00 0.00 79 1005.2
20260509144810 60 208 7.0 16.0 0.00 0.00 0.00 79 1005.2
20260509144609 60 219 6.0 12.0 0.00 0.00 0.00 79 1005.2
20260509144409 60 226 5.0 13.0 0.00 0.00 0.00 81 1005.2
20260509144209 60 212 4.0 14.0 0.00 0.00 0.00 80 1005.3
20260509144008 60 224 4.0 14.0 0.00 0.00 0.00 81 1005.4
20260509143808 60 219 4.0 14.0 0.00 0.00 0.00 81 1005.4
20260509143608 59 224 5.0 15.0 0.00 0.00 0.00 81 1005.4
20260509143408 59 224 4.0 15.0 0.00 0.00 0.00 81 1005.4
20260509143207 59 219 7.0 15.0 0.00 0.00 0.00 81 1005.4
20260509143007 59 216 7.0 15.0 0.00 0.00 0.00 80 1005.5
20260509142807 60 215 6.0 15.0 0.00 0.00 0.00 80 1005.5
20260509142606 60 214 5.0 13.0 0.00 0.00 0.00 81 1005.5
20260509142406 60 219 4.0 13.0 0.00 0.00 0.00 81 1005.5
20260509142206 59 221 5.0 11.0 0.00 0.00 0.00 82 1005.5
20260509142005 59 236 4.0 12.0 0.00 0.00 0.00 82 1005.5
20260509141805 59 219 5.0 12.0 0.00 0.00 0.00 83 1005.5
20260509141605 58 211 5.0 12.0 0.00 0.00 0.00 83 1005.5
20260509141405 58 217 6.0 13.0 0.00 0.00 0.00 83 1005.5
20260509141204 58 212 5.0 13.0 0.00 0.00 0.00 84 1005.5
20260509141004 58 217 5.0 13.0 0.00 0.00 0.00 84 1005.5
20260509140804 58 206 8.0 13.0 0.00 0.00 0.00 84 1005.6
20260509140603 58 217 6.0 12.0 0.00 0.00 0.00 84 1005.5
20260509140403 58 226 5.0 12.0 0.00 0.00 0.00 85 1005.6
20260509140203 58 215 5.0 18.0 0.00 0.00 0.00 86 1005.6
20260509140003 57 215 4.0 18.0 0.00 0.00 0.00 87 1005.6
20260509135802 57 221 4.0 18.0 0.00 0.00 0.00 88 1005.7
20260509135602 56 217 6.0 18.0 0.00 0.00 0.00 88 1005.7
20260509135402 56 215 5.0 18.0 0.00 0.00 0.00 88 1005.7
20260509135201 56 224 4.0 16.0 0.00 0.00 0.00 89 1005.7
20260509135001 55 208 5.0 16.0 0.00 0.00 0.00 90 1005.7
20260509134801 55 219 5.0 16.0 0.00 0.00 0.00 90 1005.8
20260509134600 55 217 5.0 16.0 0.00 0.00 0.00 90 1005.8
20260509134400 55 220 5.0 16.0 0.00 0.00 0.00 90 1005.8
20260509134200 55 230 3.0 11.0 0.00 0.00 0.00 91 1005.9
20260509133959 54 227 2.0 14.0 0.00 0.00 0.00 92 1005.9
20260509133759 54 220 3.0 14.0 0.00 0.00 0.00 92 1006.0
20260509133559 54 228 5.0 14.0 0.00 0.00 0.00 92 1006.1
20260509133359 54 214 7.0 14.0 0.00 0.00 0.00 92 1006.0
20260509133158 54 215 6.0 14.0 0.00 0.00 0.00 92 1006.0
20260509132958 54 226 4.0 11.0 0.00 0.00 0.00 92 1006.0
20260509132758 54 219 5.0 11.0 0.00 0.00 0.00 92 1006.0
20260509132557 54 220 3.0 11.0 0.00 0.00 0.00 92 1006.1
20260509132357 54 224 4.0 10.0 0.00 0.00 0.00 92 1006.1
20260509132157 53 224 4.0 10.0 0.00 0.00 0.00 92 1006.1
20260509131956 53 229 3.0 11.0 0.00 0.00 0.00 92 1006.0
20260509131756 53 222 4.0 11.0 0.00 0.00 0.00 92 1006.0
20260509131556 53 207 4.0 12.0 0.00 0.00 0.00 93 1006.0
20260509131356 53 214 5.0 12.0 0.00 0.00 0.00 93 1006.1
20260509131155 53 219 4.0 12.0 0.00 0.00 0.00 93 1006.1
20260509130955 53 217 4.0 12.0 0.00 0.00 0.00 93 1006.1
20260509130755 53 223 4.0 12.0 0.00 0.00 0.00 93 1006.1
20260509130554 53 220 5.0 12.0 0.00 0.00 0.00 93 1006.1
20260509130354 53 214 5.0 10.0 0.00 0.00 0.00 93 1006.1
20260509130154 53 216 2.0 12.0 0.00 0.00 0.00 94 1006.2
20260509125953 53 217 3.0 12.0 0.00 0.00 0.00 94 1006.1
20260509125753 53 213 4.0 12.0 0.00 0.00 0.00 94 1006.1
20260509125553 52 216 3.0 12.0 0.00 0.00 0.00 94 1006.1
20260509125353 52 228 4.0 12.0 0.00 0.00 0.00 94 1006.1
20260509125152 52 220 4.0 12.0 0.00 0.00 0.00 94 1006.2
20260509124952 52 197 3.0 7.0 0.00 0.00 0.00 94 1006.2
20260509124752 52 223 3.0 7.0 0.00 0.00 0.00 94 1006.3
20260509124551 52 248 2.0 7.0 0.00 0.00 0.00 94 1006.4
20260509124351 52 207 2.0 7.0 0.00 0.00 0.00 94 1006.4
20260509124151 52 214 2.0 7.0 0.00 0.00 0.00 94 1006.4
20260509123950 52 208 2.0 7.0 0.00 0.00 0.00 94 1006.3
20260509123750 52 207 3.0 7.0 0.00 0.00 0.00 94 1006.3
20260509123550 52 218 3.0 10.0 0.00 0.00 0.00 94 1006.3
20260509123350 52 212 2.0 11.0 0.00 0.00 0.00 94 1006.2
20260509123149 52 206 1.0 11.0 0.00 0.00 0.00 94 1006.2
20260509122949 52 222 1.0 11.0 0.00 0.00 0.00 94 1006.2
20260509122749 52 189 2.0 11.0 0.00 0.00 0.00 94 1006.1
20260509122548 52 250 2.0 11.0 0.00 0.00 0.00 94 1006.0
20260509122348 52 215 4.0 9.0 0.00 0.00 0.00 94 1006.1
20260509122148 52 214 4.0 9.0 0.00 0.00 0.00 94 1006.0
20260509121947 52 224 3.0 7.0 0.00 0.00 0.00 95 1006.1
20260509121747 52 225 3.0 7.0 0.00 0.00 0.00 95 1006.0
20260509121547 52 222 2.0 7.0 0.00 0.00 0.00 95 1006.0
20260509121347 51 218 3.0 7.0 0.00 0.00 0.00 95 1006.1
20260509121146 51 206 2.0 7.0 0.00 0.00 0.00 95 1006.1
20260509120946 51 214 3.0 7.0 0.00 0.00 0.00 95 1006.0
20260509120746 51 229 3.0 7.0 0.00 0.00 0.00 95 1006.0
20260509120545 51 221 2.0 7.0 0.00 0.00 0.00 96 1006.1
20260509120345 51 217 2.0 7.0 0.00 0.00 0.00 96 1006.1
20260509120145 51 227 2.0 7.0 0.00 0.00 0.00 96 1006.1